Temperature
7 8 7 7 8 8 7 8 9 10 9 9 9 8 6 5 5 4 3 3 2 2 2 2 2 2 2 2 2 2 2 2 2 2 2 2 2 2 2 3 3 3 3 3
7 7 7 7 7 8 7 8 8 8 8 9 8 6 6 5 4 4 3 3 2 2 2 2 2 2 1 1 1 1 1 1 1 1 1 1 1 1 2 2 2 2 2 2
8 7 7 8 9 8 8 8 8 9 9 8 7 6 6 5 4 4 3 3 2 2 2 2 2 1 1 1 1 1 1 1 1 1 1 1 1 1 1 1 1 1 1 1
7 8 8 10 8 8 8 8 8 8 8 8 7 6 5 4 4 4 3 3 2 2 2 2 1 1 1 1 1 0 0 0 0 0 0 0 0 -0 -0 -0 -0 -0 -0 -0
7 8 9 9 7 7 7 8 8 8 8 7 5 4 5 4 4 4 3 3 2 2 2 1 1 1 0 0 0 -0 -0 -0 -1 -1 -1 -1 -1 -1 -1 -1 -1 -1 -1 -1
7 7 9 10 7 6 7 9 8 7 7 6 5 7 8 5 4 4 3 3 2 2 1 1 1 0 0 -0 -0 -0 -1 -1 -1 -1 -1 -1 -2 -2 -2 -2 -2 -2 -2 -2
6 7 9 9 6 6 8 10 7 6 6 5 5 7 5 5 4 3 3 2 2 2 1 1 1 0 -0 -0 -1 -1 -1 -1 -2 -2 -2 -2 -2 -2 -2 -3 -3 -3 -3 -2
6 6 8 7 5 7 9 7 6 6 5 5 5 5 4 4 4 3 3 2 2 1 1 0 -0 -0 -1 -1 -1 -1 -2 -2 -2 -2 -2 -2 -3 -3 -3 -3 -3 -3 -3 -3
7 9 8 6 7 7 6 6 6 6 5 5 4 4 4 4 3 3 2 2 1 1 0 -0 -0 -1 -1 -1 -1 -2 -2 -2 -2 -2 -3 -3 -3 -3 -4 -4 -4 -4 -5 -5
5 7 6 5 5 6 6 6 6 5 5 5 4 4 4 3 3 2 2 1 1 0 -0 -0 -1 -1 -1 -2 -2 -2 -2 -3 -3 -3 -3 -3 -4 -4 -4 -4 -5 -5 -5 -5
5 7 6 5 6 6 6 5 5 5 5 4 4 4 3 3 2 2 1 1 0 -0 -0 -1 -1 -1 -2 -2 -2 -3 -3 -3 -3 -3 -4 -4 -4 -4 -4 -5 -5 -6 -6 -6
7 8 7 7 6 6 6 5 5 5 4 4 4 3 3 2 2 2 1 1 0 -0 -1 -1 -2 -2 -2 -2 -3 -3 -3 -4 -4 -4 -4 -5 -5 -4 -4 -5 -5 -5 -6 -6
6 6 5 5 5 5 5 5 4 4 4 3 3 3 2 2 2 1 1 0 -0 -1 -1 -1 -2 -2 -3 -3 -3 -4 -4 -4 -4 -5 -5 -5 -5 -6 -5 -5 -5 -5 -5 -6
4 4 4 4 5 5 4 4 4 3 3 3 3 2 2 1 1 1 0 -0 -1 -1 -1 -2 -2 -3 -3 -3 -4 -4 -4 -5 -5 -5 -6 -6 -6 -7 -7 -7 -6 -6 -6 -6
4 4 4 4 4 4 3 3 3 3 3 3 2 2 1 1 1 1 0 -0 -1 -1 -2 -2 -3 -3 -3 -4 -4 -4 -5 -5 -6 -6 -6 -7 -7 -7 -7 -7 -7 -7 -7 -7
4 3 3 3 3 3 3 2 2 3 2 2 2 2 1 1 0 0 -0 -1 -1 -2 -2 -3 -3 -3 -4 -4 -4 -5 -5 -6 -6 -6 -7 -7 -7 -7 -8 -8 -8 -8 -8 -8
2 2 3 3 3 3 3 3 2 2 2 2 2 1 1 0 -0 -1 -1 -1 -2 -2 -3 -3 -3 -4 -4 -4 -5 -5 -6 -6 -6 -7 -7 -7 -8 -8 -8 -8 -8 -8 -8 -8
3 3 3 3 3 3 3 3 2 2 2 2 1 1 0 -0 -0 -1 -1 -2 -2 -3 -3 -3 -4 -4 -4 -5 -5 -6 -6 -7 -7 -7 -7 -8 -8 -8 -8 -8 -8 -9 -8 -8
4 4 3 3 3 3 3 2 2 2 2 1 1 0 -0 -0 -1 -1 -2 -2 -3 -3 -3 -4 -4 -4 -5 -5 -6 -6 -7 -7 -7 -7 -8 -8 -8 -8 -8 -9 -9 -9 -9 -9
4 4 3 3 3 3 3 2 2 2 1 1 0 -0 -1 -1 -1 -2 -2 -2 -3 -3 -4 -4 -4 -5 -5 -6 -6 -6 -7 -7 -7 -8 -8 -8 -8 -8 -9 -9 -9 -9 -9 -9
4 4 4 3 3 3 2 2 2 2 1 1 0 -0 -1 -1 -2 -2 -2 -3 -3 -4 -4 -4 -5 -5 -5 -6 -6 -7 -7 -7 -8 -8 -8 -8 -9 -9 -9 -9 -9 -9 -9 -9
4 4 4 3 3 3 2 2 1 1 1 0 -0 -1 -1 -1 -2 -2 -3 -3 -4 -4 -4 -5 -5 -5 -6 -6 -7 -7 -7 -8 -8 -8 -8 -9 -9 -9 -9 -9 -10 -10 -10 -9
4 4 3 3 3 2 2 1 1 1 0 0 -0 -1 -1 -2 -2 -3 -3 -3 -4 -4 -5 -5 -5 -6 -6 -6 -7 -7 -7 -8 -8 -8 -9 -9 -9 -9 -9 -10 -10 -10 -10 -10
4 4 3 2 2 2 2 1 1 0 0 -0 -1 -1 -2 -2 -2 -3 -3 -4 -4 -5 -5 -5 -6 -6 -6 -7 -7 -7 -8 -8 -8 -8 -9 -9 -9 -9 -10 -10 -10 -10 -10 -10
3 3 3 2 2 2 1 1 0 0 -0 -1 -1 -1 -2 -2 -3 -3 -4 -4 -5 -5 -5 -6 -6 -6 -7 -7 -7 -8 -8 -8 -8 -9 -9 -9 -9 -9 -10 -10 -10 -10 -10 -10
3 3 2 2 2 1 1 0 0 -0 -0 -1 -1 -2 -2 -3 -3 -4 -4 -4 -5 -5 -6 -6 -6 -7 -7 -7 -7 -8 -8 -8 -8 -9 -9 -9 -9 -9 -10 -10 -10 -10 -10 -10
2 2 2 2 1 1 1 0 -0 -0 -1 -1 -2 -2 -3 -3 -4 -4 -4 -5 -5 -5 -6 -6 -7 -7 -7 -7 -8 -8 -8 -8 -9 -9 -9 -9 -9 -9 -10 -10 -10 -10 -10 -10
Wind_Speed
7 8 7 8 9 9 10 9 7 6 7 8 6 6 5 4 4 4 3 3 2 3 3 4 5 6 7 7 8 8 8 8 8 9 8 8 9 9 9 9 9 8 8 8
5 5 6 9 11 12 12 12 12 12 11 7 5 4 5 5 4 5 5 4 3 3 3 3 4 5 6 6 7 7 7 8 8 8 8 8 9 9 9 9 9 9 9 9
3 4 6 8 9 11 8 9 9 10 7 4 5 6 6 6 6 6 5 4 4 3 3 3 4 4 5 6 6 6 7 7 8 8 8 9 9 9 9 9 10 10 10 10
4 5 5 1 2 5 8 9 11 10 8 7 6 5 5 6 6 6 5 4 4 3 3 3 3 4 4 5 5 6 7 7 8 8 9 9 9 9 9 9 9 9 10 10
3 4 8 5 4 5 6 6 8 11 9 6 3 4 5 5 5 5 5 4 3 3 2 2 3 3 4 4 5 6 7 8 8 8 9 9 9 10 9 9 9 9 10 11
4 4 5 1 3 3 2 5 4 7 7 5 4 5 3 3 4 4 3 3 2 2 2 2 3 3 3 4 5 6 7 8 8 8 8 9 9 10 9 9 9 9 10 10
8 7 8 2 5 6 5 1 3 5 6 6 7 5 1 2 3 3 3 3 2 2 2 2 2 2 3 4 5 6 7 7 8 8 8 8 9 8 9 9 9 9 10 10
6 7 8 6 8 8 4 1 3 4 5 7 7 4 3 4 3 3 3 3 3 3 3 2 2 3 4 4 5 6 7 7 8 8 7 7 8 9 9 9 10 10 10 10
8 8 2 7 9 4 2 4 4 5 5 6 6 6 5 5 4 4 4 4 3 3 3 2 2 3 4 5 5 6 7 8 8 8 8 8 8 9 9 8 8 9 9 10
8 12 11 10 11 10 8 8 7 6 6 7 7 7 6 5 5 5 5 4 4 4 3 3 2 3 3 4 5 6 7 8 8 8 8 8 7 7 7 8 8 9 9 10
11 11 10 10 11 10 8 8 7 7 7 8 8 7 7 6 6 5 5 4 4 4 4 3 2 3 3 3 4 5 7 7 7 7 8 8 8 7 8 8 9 11 10 10
11 9 7 6 4 6 7 7 7 6 6 7 8 8 7 6 5 5 5 4 4 4 4 3 2 2 3 3 4 5 6 6 6 6 7 7 8 9 10 11 14 15 14 14
10 5 7 7 6 7 7 7 6 7 7 7 7 7 7 5 5 5 5 5 5 4 4 3 3 3 3 3 4 5 6 7 6 7 7 8 8 9 10 11 13 14 14 16
12 7 8 8 8 7 6 6 5 5 6 6 6 6 6 5 5 5 5 5 4 4 3 3 3 3 3 4 4 6 6 7 7 7 7 8 8 9 9 10 12 11 12 15
12 12 10 6 5 5 5 4 5 6 6 5 5 6 6 6 6 5 4 4 3 3 3 3 3 3 3 4 5 6 6 6 6 7 8 8 8 9 9 10 10 11 11 12
7 8 9 9 10 8 7 7 8 8 7 7 6 6 6 5 5 4 4 4 4 4 3 3 3 3 3 4 5 5 5 7 8 8 8 8 8 8 9 9 10 10 10 11
8 8 8 8 10 10 9 9 9 8 7 8 7 6 5 5 4 4 4 4 4 4 4 4 4 3 3 4 5 5 5 7 9 8 7 7 8 9 9 9 10 10 10 12
13 11 10 9 8 9 9 8 8 8 8 7 6 6 7 7 6 5 4 4 3 3 4 3 3 3 3 4 4 4 5 6 6 7 7 7 8 8 9 9 10 11 11 12
10 10 10 10 9 8 8 8 8 7 6 6 7 8 7 6 5 5 4 4 5 5 3 3 4 4 4 4 5 4 5 6 6 7 7 9 9 8 8 9 10 10 11 11
7 7 8 8 7 7 8 7 6 6 6 7 7 6 6 6 5 5 5 5 5 3 3 3 3 3 4 4 5 4 5 6 6 7 7 7 8 8 8 9 10 10 10 10
7 6 6 6 6 6 7 7 7 7 7 8 8 8 7 6 6 5 5 5 4 4 4 4 3 3 4 4 5 4 4 5 6 6 6 7 7 8 8 9 9 9 10 10
6 6 6 6 6 6 5 6 7 8 7 7 7 7 6 6 6 6 6 5 3 4 4 3 3 4 5 5 3 3 4 5 5 5 6 6 7 8 8 9 9 9 10 10
6 6 6 7 7 5 5 6 7 8 8 9 9 8 8 6 5 5 5 4 4 5 4 3 4 5 6 3 3 4 4 5 5 5 6 6 7 8 8 9 9 9 10 10
6 6 6 5 5 5 7 7 7 7 7 7 7 7 7 5 5 5 4 4 6 6 4 4 6 6 5 3 3 4 4 5 5 5 6 6 7 7 8 8 9 9 9 11
6 6 6 7 8 8 8 6 6 7 7 6 6 7 6 5 5 4 4 5 6 6 4 5 6 5 4 3 4 4 4 5 5 6 6 6 7 7 7 8 8 9 9 9
7 7 7 8 8 6 6 6 6 6 7 6 6 6 6 5 5 4 4 5 6 6 4 3 4 4 3 4 4 4 4 5 6 5 6 6 7 8 7 8 10 9 9 9
7 6 6 6 7 7 7 7 8 8 8 8 6 6 6 6 5 5 5 5 5 4 4 3 3 3 3 4 4 4 4 5 5 5 6 6 6 7 7 9 8 8 9 9
Wind_Direction
265 270 261 257 251 230 223 235 247 255 259 267 266 260 255 253 254 258 263 268 286 310 334 347 353 355 358 359 359 358 0 2 360 356 355 354 355 354 352 352 350 344 341 338
277 256 257 261 251 239 237 238 243 258 269 269 264 238 241 243 244 249 258 259 267 284 310 329 338 343 348 350 351 352 356 355 354 352 353 354 353 350 349 348 347 345 342 337
275 301 289 265 242 220 218 219 223 239 248 235 238 235 241 246 243 245 251 255 259 270 286 307 325 333 337 340 343 348 351 351 351 349 349 348 346 345 345 343 342 340 337 335
288 302 256 238 132 210 223 237 228 241 248 242 247 254 252 249 246 249 250 251 254 261 274 296 314 322 328 334 339 342 345 345 345 343 342 340 340 340 338 335 334 332 329 329
256 276 276 269 211 199 219 258 229 232 241 242 240 249 243 225 227 239 244 246 250 253 263 281 298 311 320 330 337 341 342 340 339 338 337 337 338 336 333 331 329 327 325 326
234 256 256 232 149 166 208 260 203 210 225 218 201 250 257 173 202 222 227 228 233 238 248 265 290 304 312 325 333 336 334 331 331 332 332 332 330 328 327 325 321 320 318 319
232 245 264 234 151 160 214 287 151 202 217 205 215 253 317 168 200 208 212 215 213 222 238 260 283 295 303 316 324 327 326 325 327 328 326 323 322 322 323 322 320 320 318 318
207 225 249 165 160 199 239 90 195 219 224 222 232 245 234 225 220 214 211 209 208 219 240 259 272 283 294 309 321 324 323 322 323 324 323 320 320 321 322 321 320 321 321 321
215 232 273 182 208 229 235 231 231 232 235 228 235 239 236 232 227 225 223 217 212 221 236 250 259 272 290 310 321 322 321 321 320 321 321 322 321 321 321 321 320 320 319 318
253 257 253 245 245 250 244 243 246 239 233 224 233 237 235 231 227 224 223 221 215 217 232 249 264 281 292 307 315 314 315 317 318 319 319 320 318 317 318 318 318 317 316 316
250 264 273 255 237 239 242 243 241 239 235 230 230 233 231 229 227 225 222 218 212 219 232 244 259 280 299 307 311 310 312 315 317 316 316 317 316 314 312 308 309 310 309 310
244 238 231 250 229 225 231 238 238 236 240 234 228 231 227 228 224 220 217 212 213 221 233 243 256 277 300 310 311 310 312 315 315 314 314 315 316 313 305 303 307 307 306 307
247 252 250 269 265 241 239 242 239 236 236 235 229 224 219 220 214 212 212 214 218 223 231 244 260 280 304 311 309 307 308 310 310 311 313 314 314 314 315 314 310 309 311 313
241 244 258 253 251 242 242 243 239 236 233 225 217 212 208 207 206 209 215 218 218 219 226 239 260 282 305 306 303 304 306 305 307 308 310 309 309 310 309 312 315 316 317 316
238 231 243 257 255 247 238 224 224 228 222 215 208 205 204 205 208 209 208 203 202 211 224 241 261 282 303 302 302 305 305 307 309 308 306 306 307 307 306 307 308 311 314 318
233 233 239 244 245 243 235 228 230 233 224 216 212 211 209 208 203 194 191 190 203 222 232 244 260 279 294 298 303 302 302 307 312 309 307 307 308 307 307 309 309 310 312 317
231 236 227 233 237 236 231 229 232 233 225 218 214 203 192 187 189 196 199 204 217 230 236 242 259 277 285 291 298 302 304 308 311 308 306 307 307 307 308 309 309 310 310 313
231 237 234 236 236 236 237 233 229 225 220 214 197 187 189 194 202 204 200 199 214 232 238 246 259 272 278 287 294 298 303 306 309 308 307 306 307 307 308 307 309 310 312 315
229 234 236 236 236 232 232 228 223 215 204 189 187 194 200 203 202 198 192 201 218 235 240 240 253 262 272 281 293 291 297 302 306 307 306 308 309 308 309 309 310 312 313 314
228 230 233 237 231 222 222 217 203 195 190 182 183 189 198 201 196 194 199 219 228 233 232 239 249 257 271 279 289 288 294 300 304 306 308 309 309 310 311 312 312 313 314 314
229 226 225 225 225 221 214 202 191 192 187 184 188 196 199 198 193 192 204 228 225 217 227 238 245 257 269 281 279 282 292 298 301 304 306 307 308 309 311 313 314 315 315 314
224 222 222 219 216 217 210 198 193 189 185 189 194 192 192 198 199 206 216 227 219 208 221 233 243 259 275 282 269 282 290 295 297 299 300 302 305 308 310 313 313 313 312 311
226 223 220 217 214 212 202 198 196 192 194 195 195 196 199 202 200 206 223 212 210 218 224 233 249 265 279 272 272 281 287 290 292 294 296 298 300 303 306 307 307 308 309 311
227 224 221 212 195 200 210 208 200 200 200 201 203 200 196 198 208 214 219 203 206 219 226 237 251 265 274 264 270 277 282 286 289 292 293 295 297 300 300 302 304 306 307 308
224 221 211 203 210 219 219 200 191 197 199 204 206 203 202 205 209 202 196 204 212 220 228 236 248 262 263 262 267 273 277 280 286 291 292 295 296 297 298 299 301 303 304 305
221 224 222 219 222 221 206 195 201 202 199 204 208 203 199 198 199 197 197 203 211 218 223 231 240 249 252 258 265 271 275 282 287 289 289 291 292 294 295 298 301 301 301 303
223 227 227 229 226 217 209 205 208 208 204 204 207 198 193 192 192 194 198 203 206 213 221 228 235 242 249 256 263 269 272 276 280 283 287 288 289 291 294 296 298 299 301 301
Height
1506 1504 1504 1502 1500 1500 1501 1496 1492 1485 1486 1484 1486 1488 1488 1488 1487 1487 1486 1484 1483 1481 1479 1477 1474 1471 1469 1466 1463 1460 1457 1454 1451 1448 1445 1443 1440 1438 1435 1433 1431 1429 1427 1425
1505 1502 1502 1500 1495 1495 1495 1493 1490 1488 1485 1483 1485 1486 1486 1486 1485 1484 1483 1482 1481 1480 1478 1476 1473 1471 1468 1465 1462 1459 1456 1453 1450 1448 1445 1442 1439 1436 1434 1431 1429 1426 1424 1422
1500 1501 1499 1489 1484 1487 1487 1486 1485 1482 1480 1481 1483 1483 1483 1483 1483 1482 1481 1480 1479 1478 1476 1474 1472 1470 1467 1464 1462 1459 1456 1453 1450 1447 1444 1441 1438 1435 1432 1429 1427 1424 1421 1418
1503 1499 1494 1480 1484 1484 1483 1481 1481 1479 1479 1480 1481 1481 1481 1480 1480 1479 1479 1478 1477 1476 1474 1473 1471 1469 1466 1464 1461 1458 1455 1452 1448 1445 1442 1439 1436 1433 1430 1427 1424 1421 1418 1415
1503 1495 1484 1478 1482 1483 1482 1477 1476 1477 1477 1479 1479 1479 1478 1477 1477 1477 1476 1476 1475 1474 1472 1470 1469 1467 1464 1462 1459 1457 1453 1450 1447 1444 1441 1437 1434 1431 1428 1425 1421 1418 1415 1412
1501 1496 1483 1473 1480 1481 1483 1474 1473 1474 1475 1476 1478 1475 1473 1474 1474 1474 1473 1473 1472 1471 1470 1468 1466 1464 1462 1460 1457 1454 1452 1448 1445 1442 1439 1436 1432 1429 1426 1422 1419 1415 1412 1408
1498 1493 1476 1474 1479 1482 1479 1468 1472 1472 1473 1474 1474 1473 1473 1472 1471 1471 1471 1470 1469 1468 1467 1466 1464 1462 1460 1458 1455 1453 1450 1447 1443 1440 1437 1433 1430 1426 1423 1419 1415 1412 1408 1405
1493 1490 1477 1473 1476 1475 1468 1469 1469 1470 1470 1470 1470 1470 1469 1469 1468 1468 1467 1467 1466 1465 1464 1463 1461 1459 1457 1455 1453 1450 1447 1444 1441 1438 1434 1431 1427 1423 1420 1416 1412 1408 1405 1401
1480 1473 1468 1469 1468 1467 1467 1467 1466 1467 1467 1467 1467 1466 1466 1466 1465 1465 1464 1464 1463 1462 1461 1460 1458 1456 1454 1452 1450 1447 1445 1442 1439 1435 1432 1428 1424 1420 1417 1413 1409 1405 1401 1397
1477 1466 1465 1465 1464 1464 1464 1463 1463 1463 1464 1464 1463 1463 1463 1462 1462 1461 1461 1460 1460 1459 1457 1456 1455 1453 1451 1449 1447 1444 1442 1439 1436 1432 1429 1425 1422 1418 1414 1410 1406 1402 1399 1395
1469 1463 1461 1458 1458 1458 1459 1459 1459 1459 1459 1459 1459 1459 1459 1458 1458 1458 1457 1457 1456 1455 1454 1453 1451 1450 1448 1446 1444 1441 1438 1436 1432 1429 1425 1422 1418 1415 1411 1408 1404 1400 1396 1393
1457 1454 1455 1453 1453 1454 1454 1454 1454 1454 1454 1454 1454 1454 1454 1454 1454 1454 1453 1453 1452 1451 1451 1449 1448 1446 1445 1443 1440 1438 1435 1432 1429 1425 1422 1419 1415 1411 1408 1405 1401 1397 1393 1389
1450 1449 1450 1449 1449 1450 1450 1450 1450 1450 1450 1449 1449 1450 1449 1449 1450 1450 1449 1449 1448 1448 1447 1446 1444 1443 1441 1439 1437 1434 1432 1429 1425 1422 1419 1415 1411 1407 1403 1399 1396 1392 1388 1384
1446 1446 1445 1444 1445 1445 1445 1445 1445 1445 1445 1445 1445 1445 1445 1445 1445 1445 1445 1445 1444 1444 1443 1442 1441 1439 1438 1436 1433 1431 1428 1425 1422 1419 1415 1412 1408 1404 1400 1395 1391 1386 1383 1380
1440 1440 1440 1439 1439 1440 1440 1440 1440 1440 1440 1440 1440 1440 1441 1441 1441 1441 1441 1441 1440 1440 1439 1438 1437 1436 1434 1432 1430 1427 1425 1422 1418 1415 1412 1408 1404 1400 1396 1392 1388 1383 1379 1375
1434 1434 1434 1434 1434 1434 1434 1434 1435 1435 1435 1435 1436 1436 1436 1437 1437 1437 1437 1437 1437 1436 1435 1434 1433 1432 1430 1428 1426 1423 1421 1418 1415 1411 1408 1404 1401 1397 1393 1389 1385 1380 1376 1372
1429 1428 1428 1428 1428 1428 1429 1429 1429 1430 1430 1431 1431 1432 1432 1433 1433 1433 1433 1433 1433 1433 1432 1431 1429 1428 1426 1424 1422 1420 1417 1414 1411 1408 1404 1401 1397 1393 1390 1386 1382 1377 1373 1369
1421 1422 1423 1424 1423 1423 1424 1424 1424 1425 1425 1426 1427 1427 1428 1429 1429 1429 1430 1429 1429 1429 1428 1427 1426 1424 1422 1421 1418 1416 1413 1411 1407 1404 1401 1397 1394 1390 1386 1382 1378 1374 1370 1366
1415 1416 1417 1418 1418 1418 1419 1419 1420 1420 1421 1422 1422 1423 1424 1425 1425 1425 1426 1425 1425 1424 1424 1423 1422 1420 1419 1417 1415 1412 1410 1407 1404 1401 1397 1394 1390 1386 1383 1379 1375 1371 1367 1362
1411 1412 1412 1413 1413 1414 1414 1415 1415 1416 1417 1418 1418 1419 1420 1421 1421 1421 1421 1421 1421 1420 1420 1419 1417 1416 1415 1413 1411 1408 1406 1403 1400 1397 1394 1390 1387 1383 1379 1375 1371 1367 1363 1359
1408 1408 1408 1409 1409 1409 1410 1411 1411 1412 1413 1413 1414 1415 1416 1417 1417 1417 1417 1417 1417 1416 1415 1414 1413 1412 1411 1409 1407 1404 1402 1399 1396 1393 1390 1387 1383 1379 1376 1372 1368 1364 1360 1356
1405 1405 1405 1405 1405 1406 1406 1406 1407 1408 1409 1409 1410 1411 1412 1412 1412 1412 1412 1413 1412 1412 1411 1410 1409 1408 1407 1405 1403 1400 1398 1395 1393 1390 1387 1383 1380 1376 1373 1369 1365 1361 1357 1353
1402 1402 1402 1402 1402 1402 1402 1403 1403 1404 1405 1405 1406 1406 1407 1408 1408 1408 1408 1408 1408 1407 1407 1406 1405 1404 1402 1401 1399 1396 1394 1391 1389 1386 1383 1380 1377 1373 1369 1366 1362 1358 1354 1350
1399 1398 1398 1398 1398 1398 1398 1398 1399 1400 1401 1401 1402 1402 1403 1403 1403 1403 1404 1404 1403 1403 1402 1402 1401 1400 1398 1396 1394 1392 1390 1388 1385 1382 1380 1376 1373 1370 1366 1363 1359 1355 1352 1348
1395 1394 1394 1393 1393 1393 1393 1394 1394 1395 1395 1396 1396 1397 1397 1398 1398 1398 1399 1399 1399 1398 1398 1397 1396 1395 1394 1392 1390 1388 1386 1384 1381 1379 1376 1373 1370 1367 1363 1360 1356 1353 1349 1345
1390 1389 1388 1388 1388 1388 1388 1388 1388 1389 1390 1390 1391 1391 1392 1392 1393 1393 1393 1394 1394 1394 1393 1393 1392 1391 1389 1388 1386 1384 1382 1380 1378 1375 1372 1370 1366 1363 1360 1357 1353 1350 1346 1343
1383 1382 1382 1381 1381 1381 1381 1382 1382 1383 1384 1384 1385 1386 1387 1387 1387 1388 1388 1389 1389 1389 1389 1388 1387 1386 1385 1383 1382 1380 1378 1376 1374 1371 1369 1366 1363 1360 1357 1354 1350 1347 1344 1341